Corning, AR

1:45 AM CST on February 10, 2016 (GMT -0600)
Corning

Weather History for K4M9 - February, 2013

Change the Weather History Date:

Monday, February 25, 2013

  Actual Average (KARG) Record (KARG)
Temperature  
Mean Temperature 44 °F -  
Max Temperature 53 °F 49 °F 64 °F (1998)
Min Temperature 35 °F 34 °F 19 °F (2003)
Degree Days  
Heating Degree Days 21    
Moisture  
Dew Point 35 °F    
Average Humidity 71    
Maximum Humidity 93    
Minimum Humidity 47    
Precipitation  
Precipitation 1.89 in - - ()
Sea Level Pressure  
Sea Level Pressure 29.74 in    
Wind  
Wind Speed 16 mph (NE)    
Max Wind Speed 30 mph    
Max Gust Speed 38 mph    
Visibility 8 miles    
Events Rain , Thunderstorm    
Averages and records for this station are not official NWS values.
T = Trace of Precipitation, MM = Missing Value Source: NWS Daily Summary

Daily Weather History Graph

Daily Weather History Graph

Search for Another Location

Airport or City:

Trip Planner

Search our weather history database for the weather conditions in past years. The results will help you decide how hot, cold, wet, or windy it might be!

Date:

Astronomy

Feb. 25, 2013 Rise Set
Actual Time 6:37 AM CST 5:53 PM CST
Civil Twilight 6:12 AM CST 6:19 PM CST
Nautical Twilight 5:42 AM CST 6:49 PM CST
Astronomical Twilight 5:12 AM CST 7:19 PM CST
Moon 6:05 PM CST (2/25) 6:09 AM CST (2/25)
Length of Visible Light 12h 07m
Length of Day
11h 15m
Full, 100% of the Moon is Illuminated
Feb 25
Full
Feb 25
Full
Mar 4
Last Quarter
Mar 11
New
Mar 19
First Quarter

Hourly Weather History & Observations

Time (CST) Temp. Windchill Dew Point Humidity Pressure Visibility Wind Dir Wind Speed Gust Speed Precip Events Conditions
12:15 AM 39.2 °F 33.0 °F 32.0 °F 75% 29.98 in 10.0 mi NE 9.2 mph - N/A   Clear
12:35 AM 39.2 °F 33.0 °F 32.0 °F 75% 29.98 in 10.0 mi NE 9.2 mph - N/A   Clear
12:55 AM 37.4 °F 30.8 °F 32.0 °F 81% 29.98 in 10.0 mi NE 9.2 mph - N/A   Clear
1:15 AM 37.4 °F 29.8 °F 32.0 °F 81% 29.97 in 10.0 mi NE 11.5 mph - N/A   Clear
1:35 AM 37.4 °F 28.5 °F 32.0 °F 81% 29.97 in 10.0 mi NE 15.0 mph - N/A   Clear
1:55 AM 37.4 °F 28.9 °F 32.0 °F 81% 29.96 in 10.0 mi ENE 13.8 mph - N/A   Clear
2:15 AM 37.4 °F 29.8 °F 32.0 °F 81% 29.97 in 10.0 mi ENE 11.5 mph - N/A   Clear
2:35 AM 37.4 °F 29.3 °F 32.0 °F 81% 29.95 in 10.0 mi NE 12.7 mph - N/A   Clear
2:55 AM 39.2 °F 33.6 °F 32.0 °F 75% 29.98 in 10.0 mi NE 8.1 mph - N/A   Clear
3:15 AM 39.2 °F 30.8 °F 32.0 °F 75% 29.96 in 10.0 mi ENE 15.0 mph - N/A   Clear
3:35 AM 37.4 °F 31.4 °F 32.0 °F 81% 29.96 in 10.0 mi NNE 8.1 mph - N/A   Clear
3:55 AM 35.6 °F 27.5 °F 32.0 °F 87% 29.96 in 10.0 mi NE 11.5 mph - N/A   Clear
4:15 AM 35.6 °F 27.1 °F 32.0 °F 87% 29.95 in 10.0 mi NE 12.7 mph - N/A   Clear
4:55 AM 37.4 °F 28.9 °F 30.2 °F 75% 29.93 in 10.0 mi NE 13.8 mph 18.4 mph N/A   Clear
5:15 AM 35.6 °F 28.0 °F 30.2 °F 81% 29.94 in 10.0 mi NE 10.4 mph - N/A   Clear
5:35 AM 35.6 °F 27.1 °F 30.2 °F 81% 29.92 in 10.0 mi ENE 12.7 mph - N/A   Clear
5:55 AM 35.6 °F 27.5 °F 30.2 °F 81% 29.91 in 10.0 mi NE 11.5 mph - N/A   Clear
6:15 AM 37.4 °F 28.5 °F 28.4 °F 70% 29.89 in 10.0 mi ENE 15.0 mph - N/A   Clear
6:35 AM 37.4 °F 28.2 °F 28.4 °F 70% 29.89 in 10.0 mi ENE 16.1 mph - N/A   Clear
6:55 AM 37.4 °F 29.3 °F 28.4 °F 70% 29.92 in 10.0 mi NE 12.7 mph - N/A   Clear
7:15 AM 37.4 °F 32.1 °F 28.4 °F 70% 29.94 in 10.0 mi NNE 6.9 mph - N/A   Clear
7:55 AM 39.2 °F 30.5 °F 30.2 °F 70% 29.93 in 10.0 mi NE 16.1 mph - N/A   Clear
8:15 AM 41.0 °F 32.8 °F 32.0 °F 70% 29.92 in 10.0 mi ENE 16.1 mph - N/A   Clear
8:35 AM 41.0 °F 32.5 °F 30.2 °F 65% 29.91 in 10.0 mi ENE 17.3 mph - N/A   Clear
8:55 AM 42.8 °F 35.4 °F 32.0 °F 66% 29.91 in 10.0 mi ENE 15.0 mph 21.9 mph N/A   Clear
9:15 AM 44.6 °F 37.2 °F 32.0 °F 61% 29.91 in 10.0 mi ENE 17.3 mph 26.5 mph N/A   Clear
9:35 AM 44.6 °F 36.9 °F 32.0 °F 61% 29.91 in 10.0 mi ENE 18.4 mph 23.0 mph N/A   Clear
9:55 AM 46.4 °F 39.5 °F 33.8 °F 62% 29.89 in 10.0 mi ENE 17.3 mph - N/A   Unknown
10:15 AM 48.2 °F - 33.8 °F 58% 29.89 in 10.0 mi ENE 17.3 mph - N/A   Unknown
10:35 AM 50.0 °F - 33.8 °F 54% 29.88 in 10.0 mi ENE 21.9 mph 26.5 mph N/A   Unknown
10:55 AM 50.0 °F - 33.8 °F 54% 29.88 in 10.0 mi ENE 18.4 mph 24.2 mph N/A   Unknown
11:15 AM 50.0 °F - 33.8 °F 54% 29.86 in 10.0 mi ENE 20.7 mph 24.2 mph N/A   Clear
11:35 AM 50.0 °F - 35.6 °F 58% 29.84 in 10.0 mi ENE 19.6 mph 24.2 mph N/A   Clear
11:55 AM 51.8 °F - 35.6 °F 54% 29.84 in 10.0 mi ENE 17.3 mph 25.3 mph N/A   Clear
12:15 PM 50.0 °F - 35.6 °F 58% 29.80 in 10.0 mi ENE 19.6 mph 25.3 mph N/A   Clear
12:55 PM 53.6 °F - 35.6 °F 51% 29.77 in 7.0 mi ENE 17.3 mph 24.2 mph N/A   Clear
1:15 PM 53.6 °F - 35.6 °F 51% 29.73 in 8.0 mi ENE 20.7 mph 27.6 mph N/A   Clear
1:35 PM 53.6 °F - 35.6 °F 51% 29.71 in 8.0 mi ENE 24.2 mph 31.1 mph N/A   Partly Cloudy
1:55 PM 53.6 °F - 33.8 °F 47% 29.69 in 10.0 mi ENE 21.9 mph 31.1 mph N/A   Scattered Clouds
2:15 PM 53.6 °F - 35.6 °F 51% 29.68 in 10.0 mi ENE 18.4 mph 26.5 mph N/A   Mostly Cloudy
2:55 PM 51.8 °F - 35.6 °F 54% 29.65 in 10.0 mi ENE 25.3 mph 29.9 mph N/A   Overcast
3:15 PM 50.0 °F - 33.8 °F 54% 29.63 in 10.0 mi ENE 19.6 mph 29.9 mph N/A   Overcast
3:55 PM 51.8 °F - 35.6 °F 54% 29.59 in 10.0 mi ENE 23.0 mph 31.1 mph N/A   Overcast
4:15 PM 51.8 °F - 32.0 °F 47% 29.58 in - ENE 25.3 mph 31.1 mph N/A   Unknown
4:35 PM 51.8 °F - 33.8 °F 50% 29.57 in 10.0 mi ENE 26.5 mph 33.4 mph N/A   Overcast
4:55 PM 51.8 °F - 33.8 °F 50% 29.56 in 10.0 mi ENE 26.5 mph 35.7 mph N/A   Overcast
5:15 PM 51.8 °F - 33.8 °F 50% 29.55 in 10.0 mi ENE 24.2 mph 33.4 mph N/A   Overcast
5:35 PM 50.0 °F - 35.6 °F 58% 29.54 in 10.0 mi ENE 28.8 mph 35.7 mph N/A   Overcast
5:55 PM 48.2 °F - 37.4 °F 66% 29.53 in 7.0 mi ENE 28.8 mph 33.4 mph 0.05 in Rain , Thunderstorm Light Rain
6:15 PM 50.0 °F - 35.6 °F 58% 29.53 in 10.0 mi ENE 29.9 mph 35.7 mph N/A Thunderstorm Thunderstorm
6:55 PM 46.4 °F 39.2 °F 39.2 °F 76% 29.56 in 8.0 mi NE 18.4 mph - 0.07 in Rain , Thunderstorm Light Rain
7:15 PM 46.4 °F 40.4 °F 39.2 °F 76% 29.59 in 2.0 mi NE 13.8 mph 24.2 mph 0.12 in Rain Heavy Rain
7:35 PM 44.6 °F 36.6 °F 39.2 °F 81% 29.57 in 3.0 mi NNE 19.6 mph 25.3 mph 0.33 in Rain Heavy Rain
7:55 PM 44.6 °F 36.9 °F 41.0 °F 87% 29.56 in 2.5 mi NNE 18.4 mph 24.2 mph 0.51 in Rain Heavy Rain
8:15 PM 44.6 °F 36.6 °F 41.0 °F 87% 29.53 in 2.5 mi NE 19.6 mph 28.8 mph 0.12 in Rain Heavy Rain
8:35 PM 44.6 °F 35.9 °F 41.0 °F 87% 29.51 in 3.0 mi NE 23.0 mph 32.2 mph 0.20 in Rain Light Rain
8:55 PM 44.6 °F 35.7 °F 41.0 °F 87% 29.50 in 4.0 mi NE 24.2 mph 31.1 mph 0.23 in Rain Light Rain
9:15 PM 42.8 °F 32.9 °F 41.0 °F 93% 29.48 in 2.5 mi NE 26.5 mph 32.2 mph 0.13 in   Overcast
9:35 PM 42.8 °F 32.5 °F 41.0 °F 93% 29.45 in 2.0 mi NE 28.8 mph 34.5 mph 0.27 in   Overcast
9:55 PM 42.8 °F 32.3 °F 41.0 °F 93% 29.43 in 3.0 mi NE 29.9 mph 38.0 mph 0.41 in   Overcast
10:15 PM 42.8 °F 32.9 °F 41.0 °F 93% 29.42 in 2.5 mi NE 26.5 mph 34.5 mph 0.11 in   Overcast
10:35 PM 42.8 °F 32.3 °F 41.0 °F 93% 29.40 in 3.0 mi NE 29.9 mph 38.0 mph 0.25 in   Overcast
10:55 PM 42.8 °F 33.3 °F 41.0 °F 93% 29.40 in 2.5 mi NE 24.2 mph 35.7 mph 0.34 in   Overcast
11:15 PM 42.8 °F 32.7 °F 41.0 °F 93% 29.38 in 2.5 mi NE 27.6 mph 33.4 mph 0.16 in   Mostly Cloudy
11:35 PM 42.8 °F 32.9 °F 41.0 °F 93% 29.37 in 1.8 mi NE 26.5 mph 33.4 mph 0.21 in   Mostly Cloudy
11:55 PM 42.8 °F 33.1 °F 41.0 °F 93% 29.36 in 2.0 mi NE 25.3 mph 31.1 mph 0.28 in Rain Rain